| time (UTC) | temp F | wind direction | speed MPH | gust MPH | rain 1hr in | rain 24hr in | rain mn in | humidity % | barometer mb |
| 20260508033246 | 42 | 200 | 2.0 | 3.0 | 0.00 | 0.00 | 0.00 | 90 | 1013.0 |
| 20260508032747 | 42 | 200 | 1.0 | 2.0 | 0.00 | 0.00 | 0.00 | 90 | 1013.0 |
| 20260508031746 | 42 | 200 | 1.0 | 2.0 | 0.00 | 0.00 | 0.00 | 90 | 1012.9 |
| 20260508031246 | 42 | 200 | 1.0 | 2.0 | 0.00 | 0.00 | 0.00 | 90 | 1012.8 |
| 20260508031014 | 42 | 200 | 2.0 | 2.0 | 0.00 | 0.00 | 0.00 | 89 | 1012.9 |
| 20260508030246 | 43 | 200 | 1.0 | 2.0 | 0.00 | 0.00 | 0.00 | 89 | 1012.8 |
| 20260508025745 | 43 | 200 | 1.0 | 2.0 | 0.00 | 0.00 | 0.00 | 89 | 1012.9 |
| 20260508025245 | 43 | 200 | 1.0 | 1.0 | 0.00 | 0.00 | 0.00 | 89 | 1012.9 |
| 20260508024745 | 43 | 200 | 0.0 | 2.0 | 0.00 | 0.00 | 0.00 | 88 | 1012.9 |
| 20260508024245 | 43 | 200 | 0.0 | 2.0 | 0.00 | 0.00 | 0.00 | 88 | 1012.9 |
| 20260508023745 | 44 | 200 | 1.0 | 2.0 | 0.00 | 0.00 | 0.00 | 88 | 1012.8 |
| 20260508023245 | 44 | 200 | 1.0 | 2.0 | 0.00 | 0.00 | 0.00 | 88 | 1012.8 |
| 20260508022746 | 44 | 200 | 1.0 | 2.0 | 0.00 | 0.00 | 0.00 | 87 | 1012.8 |
| 20260508022244 | 44 | 200 | 1.0 | 2.0 | 0.00 | 0.00 | 0.00 | 87 | 1012.8 |
| 20260508021744 | 45 | 200 | 1.0 | 2.0 | 0.00 | 0.00 | 0.00 | 86 | 1012.8 |
| 20260508021511 | 45 | 200 | 0.0 | 3.0 | 0.00 | 0.00 | 0.00 | 86 | 1012.9 |
| 20260508020743 | 45 | 200 | 1.0 | 3.0 | 0.00 | 0.00 | 0.00 | 86 | 1012.8 |
| 20260508020511 | 46 | 200 | 1.0 | 2.0 | 0.00 | 0.00 | 0.00 | 86 | 1012.8 |
| 20260508015744 | 46 | 200 | 1.0 | 3.0 | 0.00 | 0.00 | 0.00 | 86 | 1012.8 |
| 20260508015244 | 46 | 200 | 1.0 | 4.0 | 0.00 | 0.00 | 0.00 | 86 | 1012.8 |
| 20260508014744 | 46 | 200 | 2.0 | 4.0 | 0.00 | 0.00 | 0.00 | 86 | 1012.8 |
| 20260508014244 | 47 | 200 | 2.0 | 4.0 | 0.00 | 0.00 | 0.00 | 85 | 1012.8 |
| 20260508013744 | 47 | 200 | 2.0 | 4.0 | 0.00 | 0.00 | 0.00 | 85 | 1012.8 |
| 20260508013243 | 47 | 200 | 2.0 | 4.0 | 0.00 | 0.00 | 0.00 | 85 | 1012.8 |
| 20260508012744 | 47 | 200 | 2.0 | 3.0 | 0.00 | 0.00 | 0.00 | 84 | 1012.8 |
| 20260508012244 | 48 | 200 | 2.0 | 3.0 | 0.00 | 0.00 | 0.00 | 84 | 1012.8 |
| 20260508011743 | 48 | 200 | 2.0 | 4.0 | 0.00 | 0.00 | 0.00 | 84 | 1012.8 |
| 20260508011242 | 48 | 200 | 2.0 | 4.0 | 0.00 | 0.00 | 0.00 | 84 | 1012.8 |
| 20260508010743 | 48 | 200 | 2.0 | 4.0 | 0.00 | 0.00 | 0.00 | 84 | 1012.8 |
| 20260508010243 | 49 | 200 | 2.0 | 4.0 | 0.00 | 0.00 | 0.00 | 84 | 1012.9 |
| 20260508005743 | 49 | 200 | 3.0 | 4.0 | 0.00 | 0.00 | 0.00 | 84 | 1012.8 |
| 20260508005243 | 49 | 200 | 3.0 | 5.0 | 0.00 | 0.00 | 0.00 | 83 | 1012.8 |
| 20260508004744 | 49 | 200 | 3.0 | 5.0 | 0.00 | 0.00 | 0.00 | 83 | 1012.8 |
| 20260508004242 | 49 | 200 | 3.0 | 5.0 | 0.00 | 0.00 | 0.00 | 83 | 1012.8 |
| 20260508003743 | 49 | 202 | 3.0 | 5.0 | 0.00 | 0.00 | 0.00 | 83 | 1012.9 |
| 20260508003242 | 49 | 200 | 3.0 | 5.0 | 0.00 | 0.00 | 0.00 | 83 | 1012.9 |
| 20260508002742 | 49 | 200 | 3.0 | 6.0 | 0.00 | 0.00 | 0.00 | 83 | 1012.8 |
| 20260508002242 | 49 | 202 | 3.0 | 6.0 | 0.00 | 0.00 | 0.00 | 82 | 1012.9 |
| 20260508001742 | 49 | 200 | 4.0 | 6.0 | 0.00 | 0.00 | 0.00 | 82 | 1012.9 |
| 20260508001242 | 49 | 197 | 4.0 | 6.0 | 0.00 | 0.00 | 0.00 | 82 | 1013.0 |
| 20260508000742 | 50 | 197 | 4.0 | 6.0 | 0.00 | 0.00 | 0.00 | 82 | 1013.0 |
| 20260508000242 | 50 | 195 | 3.0 | 7.0 | 0.00 | 0.00 | 0.00 | 82 | 1013.0 |
| 20260507235741 | 50 | 200 | 4.0 | 7.0 | 0.00 | 0.00 | 0.00 | 82 | 1013.0 |
| 20260507235241 | 50 | 206 | 3.0 | 7.0 | 0.00 | 0.00 | 0.00 | 82 | 1013.0 |
| 20260507234741 | 50 | 207 | 4.0 | 7.0 | 0.00 | 0.00 | 0.00 | 82 | 1013.0 |
| 20260507233741 | 50 | 220 | 3.0 | 7.0 | 0.00 | 0.00 | 0.00 | 82 | 1013.0 |
| 20260507233241 | 50 | 182 | 3.0 | 7.0 | 0.00 | 0.00 | 0.00 | 82 | 1013.0 |
| 20260507232742 | 50 | 175 | 4.0 | 7.0 | 0.00 | 0.00 | 0.00 | 82 | 1013.0 |
| 20260507232241 | 50 | 180 | 4.0 | 6.0 | 0.00 | 0.00 | 0.00 | 82 | 1013.0 |
| 20260507231740 | 50 | 193 | 2.0 | 6.0 | 0.00 | 0.00 | 0.00 | 81 | 1013.1 |
| 20260507231241 | 50 | 195 | 3.0 | 6.0 | 0.00 | 0.00 | 0.00 | 81 | 1013.1 |
| 20260507230740 | 50 | 189 | 4.0 | 6.0 | 0.00 | 0.00 | 0.00 | 81 | 1013.0 |
| 20260507230240 | 50 | 196 | 3.0 | 6.0 | 0.00 | 0.00 | 0.00 | 81 | 1013.0 |
| 20260507225740 | 50 | 195 | 4.0 | 6.0 | 0.00 | 0.00 | 0.00 | 81 | 1013.0 |
| 20260507225242 | 51 | 196 | 3.0 | 6.0 | 0.00 | 0.00 | 0.00 | 81 | 1013.0 |
| 20260507224739 | 51 | 195 | 4.0 | 9.0 | 0.00 | 0.00 | 0.00 | 81 | 1013.0 |
| 20260507224239 | 51 | 180 | 5.0 | 9.0 | 0.00 | 0.00 | 0.00 | 81 | 1012.9 |
| 20260507223739 | 51 | 185 | 5.0 | 10.0 | 0.00 | 0.00 | 0.00 | 81 | 1012.9 |
| 20260507223239 | 51 | 168 | 4.0 | 10.0 | 0.00 | 0.00 | 0.00 | 80 | 1012.9 |
| 20260507223009 | 51 | 171 | 4.0 | 10.0 | 0.00 | 0.00 | 0.00 | 80 | 1012.9 |
| 20260507222239 | 51 | 164 | 5.0 | 10.0 | 0.00 | 0.00 | 0.00 | 80 | 1012.9 |
| 20260507222006 | 51 | 159 | 5.0 | 10.0 | 0.00 | 0.00 | 0.00 | 80 | 1012.9 |
| 20260507221238 | 51 | 165 | 3.0 | 11.0 | 0.00 | 0.00 | 0.00 | 80 | 1013.0 |
| 20260507220739 | 51 | 173 | 5.0 | 11.0 | 0.00 | 0.00 | 0.00 | 80 | 1013.0 |
| 20260507220240 | 51 | 176 | 4.0 | 11.0 | 0.00 | 0.00 | 0.00 | 80 | 1012.9 |
| 20260507215239 | 51 | 154 | 5.0 | 13.0 | 0.00 | 0.00 | 0.00 | 79 | 1012.9 |
| 20260507214739 | 51 | 165 | 6.0 | 13.0 | 0.00 | 0.00 | 0.00 | 79 | 1013.0 |
| 20260507214238 | 51 | 157 | 7.0 | 13.0 | 0.00 | 0.00 | 0.00 | 79 | 1013.0 |
| 20260507213738 | 51 | 157 | 5.0 | 11.0 | 0.00 | 0.00 | 0.00 | 79 | 1012.9 |
| 20260507213237 | 51 | 158 | 6.0 | 13.0 | 0.00 | 0.00 | 0.00 | 79 | 1013.0 |
| 20260507212738 | 51 | 140 | 5.0 | 13.0 | 0.00 | 0.00 | 0.00 | 78 | 1012.9 |
| 20260507212458 | 51 | 180 | 6.0 | 9.0 | 0.00 | 0.00 | 0.00 | 78 | 1012.9 |
| 20260507211736 | 52 | 151 | 4.0 | 10.0 | 0.00 | 0.00 | 0.00 | 78 | 1012.9 |
| 20260507211237 | 52 | 169 | 5.0 | 10.0 | 0.00 | 0.00 | 0.00 | 78 | 1012.9 |
| 20260507210738 | 52 | 161 | 5.0 | 13.0 | 0.00 | 0.00 | 0.00 | 77 | 1012.8 |
| 20260507210237 | 52 | 135 | 7.0 | 13.0 | 0.00 | 0.00 | 0.00 | 77 | 1012.8 |
| 20260507205737 | 52 | 165 | 3.0 | 12.0 | 0.00 | 0.00 | 0.00 | 77 | 1012.8 |
| 20260507205237 | 52 | 157 | 8.0 | 12.0 | 0.00 | 0.00 | 0.00 | 76 | 1012.7 |
| 20260507204737 | 52 | 148 | 5.0 | 12.0 | 0.00 | 0.00 | 0.00 | 76 | 1012.7 |
| 20260507203737 | 52 | 147 | 6.0 | 10.0 | 0.00 | 0.00 | 0.00 | 75 | 1012.7 |
| 20260507203236 | 52 | 159 | 5.0 | 10.0 | 0.00 | 0.00 | 0.00 | 74 | 1012.7 |
| 20260507202737 | 52 | 152 | 5.0 | 10.0 | 0.00 | 0.00 | 0.00 | 74 | 1012.7 |
| 20260507202236 | 52 | 141 | 4.0 | 9.0 | 0.00 | 0.00 | 0.00 | 74 | 1012.6 |
| 20260507201738 | 52 | 137 | 6.0 | 9.0 | 0.00 | 0.00 | 0.00 | 74 | 1012.6 |
| 20260507201236 | 52 | 158 | 6.0 | 9.0 | 0.00 | 0.00 | 0.00 | 74 | 1012.5 |
| 20260507200737 | 52 | 158 | 4.0 | 9.0 | 0.00 | 0.00 | 0.00 | 74 | 1012.4 |
| 20260507200503 | 52 | 151 | 4.0 | 9.0 | 0.00 | 0.00 | 0.00 | 73 | 1012.4 |
| 20260507195736 | 52 | 142 | 5.0 | 9.0 | 0.00 | 0.00 | 0.00 | 74 | 1012.3 |
| 20260507195238 | 52 | 165 | 5.0 | 9.0 | 0.00 | 0.00 | 0.00 | 74 | 1012.4 |
| 20260507194737 | 52 | 149 | 4.0 | 7.0 | 0.00 | 0.00 | 0.00 | 74 | 1012.4 |
| 20260507194458 | 53 | 149 | 4.0 | 7.0 | 0.00 | 0.00 | 0.00 | 74 | 1012.3 |
| 20260507193737 | 53 | 161 | 4.0 | 7.0 | 0.00 | 0.00 | 0.00 | 73 | 1012.2 |
| 20260507193237 | 53 | 151 | 4.0 | 7.0 | 0.00 | 0.00 | 0.00 | 74 | 1012.2 |
| 20260507192736 | 53 | 149 | 5.0 | 9.0 | 0.00 | 0.00 | 0.00 | 74 | 1012.1 |
| 20260507192236 | 53 | 140 | 5.0 | 9.0 | 0.00 | 0.00 | 0.00 | 73 | 1012.2 |
| 20260507191739 | 53 | 148 | 4.0 | 7.0 | 0.00 | 0.00 | 0.00 | 73 | 1012.1 |
| 20260507191236 | 53 | 144 | 4.0 | 7.0 | 0.00 | 0.00 | 0.00 | 74 | 1012.1 |
| 20260507190736 | 53 | 154 | 5.0 | 9.0 | 0.00 | 0.00 | 0.00 | 73 | 1012.1 |
| 20260507190236 | 53 | 151 | 4.0 | 9.0 | 0.00 | 0.00 | 0.00 | 73 | 1012.1 |
| 20260507185737 | 53 | 151 | 4.0 | 7.0 | 0.00 | 0.00 | 0.00 | 73 | 1012.0 |
| 20260507185237 | 54 | 154 | 4.0 | 9.0 | 0.00 | 0.00 | 0.00 | 73 | 1012.1 |
| 20260507184737 | 54 | 149 | 4.0 | 9.0 | 0.00 | 0.00 | 0.00 | 72 | 1012.0 |
| 20260507184236 | 54 | 144 | 4.0 | 9.0 | 0.00 | 0.00 | 0.00 | 72 | 1012.0 |
| 20260507183736 | 54 | 137 | 4.0 | 7.0 | 0.00 | 0.00 | 0.00 | 72 | 1012.0 |
| 20260507183237 | 54 | 144 | 3.0 | 9.0 | 0.00 | 0.00 | 0.00 | 72 | 1012.0 |
| 20260507182735 | 54 | 134 | 4.0 | 9.0 | 0.00 | 0.00 | 0.00 | 71 | 1012.0 |
| 20260507182235 | 54 | 131 | 5.0 | 9.0 | 0.00 | 0.00 | 0.00 | 70 | 1011.9 |
| 20260507181733 | 54 | 149 | 3.0 | 9.0 | 0.00 | 0.00 | 0.00 | 71 | 1012.0 |
| 20260507181234 | 54 | 149 | 4.0 | 10.0 | 0.00 | 0.00 | 0.00 | 70 | 1011.9 |
| 20260507180733 | 55 | 151 | 4.0 | 10.0 | 0.00 | 0.00 | 0.00 | 71 | 1011.9 |
| 20260507180233 | 55 | 151 | 4.0 | 7.0 | 0.00 | 0.00 | 0.00 | 71 | 1011.8 |
| 20260507175954 | 55 | 154 | 4.0 | 7.0 | 0.00 | 0.00 | 0.00 | 70 | 1011.9 |
| 20260507175233 | 55 | 148 | 4.0 | 7.0 | 0.00 | 0.00 | 0.00 | 70 | 1011.9 |
| 20260507174733 | 55 | 159 | 4.0 | 9.0 | 0.00 | 0.00 | 0.00 | 71 | 1011.9 |
| 20260507174233 | 55 | 157 | 4.0 | 9.0 | 0.00 | 0.00 | 0.00 | 71 | 1011.9 |
| 20260507173732 | 55 | 155 | 5.0 | 9.0 | 0.00 | 0.00 | 0.00 | 71 | 1011.9 |
| 20260507173232 | 55 | 168 | 4.0 | 9.0 | 0.00 | 0.00 | 0.00 | 71 | 1012.0 |
| 20260507172732 | 55 | 169 | 4.0 | 9.0 | 0.00 | 0.00 | 0.00 | 70 | 1011.9 |
| 20260507172232 | 56 | 164 | 5.0 | 7.0 | 0.00 | 0.00 | 0.00 | 69 | 1012.0 |
| 20260507171733 | 56 | 176 | 4.0 | 10.0 | 0.00 | 0.00 | 0.00 | 69 | 1011.9 |
| 20260507171232 | 56 | 149 | 6.0 | 10.0 | 0.00 | 0.00 | 0.00 | 69 | 1012.0 |
| 20260507170732 | 56 | 144 | 3.0 | 7.0 | 0.00 | 0.00 | 0.00 | 70 | 1012.0 |
| 20260507170232 | 56 | 137 | 4.0 | 7.0 | 0.00 | 0.00 | 0.00 | 72 | 1011.9 |
| 20260507165731 | 55 | 124 | 6.0 | 7.0 | 0.00 | 0.00 | 0.00 | 73 | 1011.8 |
| 20260507165231 | 54 | 140 | 4.0 | 7.0 | 0.00 | 0.00 | 0.00 | 74 | 1012.0 |
| 20260507164731 | 54 | 144 | 4.0 | 7.0 | 0.00 | 0.00 | 0.00 | 74 | 1012.0 |
| 20260507164231 | 53 | 152 | 3.0 | 5.0 | 0.00 | 0.00 | 0.00 | 75 | 1012.1 |
| 20260507163731 | 53 | 152 | 3.0 | 4.0 | 0.00 | 0.00 | 0.00 | 75 | 1012.1 |
| 20260507163452 | 53 | 152 | 2.0 | 5.0 | 0.00 | 0.00 | 0.00 | 75 | 1012.2 |
| 20260507162730 | 53 | 152 | 2.0 | 5.0 | 0.00 | 0.00 | 0.00 | 75 | 1012.2 |
| 20260507162231 | 53 | 152 | 2.0 | 4.0 | 0.00 | 0.00 | 0.00 | 75 | 1012.2 |
| 20260507161731 | 54 | 154 | 2.0 | 7.0 | 0.00 | 0.00 | 0.00 | 75 | 1012.2 |
| 20260507161456 | 54 | 152 | 3.0 | 7.0 | 0.00 | 0.00 | 0.00 | 74 | 1012.2 |
| 20260507160729 | 54 | 155 | 3.0 | 6.0 | 0.00 | 0.00 | 0.00 | 75 | 1012.2 |
| 20260507160230 | 54 | 158 | 3.0 | 6.0 | 0.00 | 0.00 | 0.00 | 74 | 1012.3 |
| 20260507155730 | 54 | 159 | 3.0 | 6.0 | 0.00 | 0.00 | 0.00 | 74 | 1012.3 |
| 20260507155230 | 54 | 159 | 3.0 | 5.0 | 0.00 | 0.00 | 0.00 | 74 | 1012.4 |
| 20260507154731 | 54 | 161 | 2.0 | 4.0 | 0.00 | 0.00 | 0.00 | 74 | 1012.3 |
| 20260507154230 | 54 | 161 | 2.0 | 5.0 | 0.00 | 0.00 | 0.00 | 74 | 1012.4 |
| 20260507153729 | 54 | 161 | 2.0 | 5.0 | 0.00 | 0.00 | 0.00 | 73 | 1012.4 |
| 20260507153230 | 54 | 161 | 3.0 | 5.0 | 0.00 | 0.00 | 0.00 | 73 | 1012.4 |
| 20260507152729 | 55 | 161 | 2.0 | 6.0 | 0.00 | 0.00 | 0.00 | 72 | 1012.4 |
| 20260507152229 | 55 | 158 | 5.0 | 7.0 | 0.00 | 0.00 | 0.00 | 71 | 1012.5 |
| 20260507151729 | 56 | 147 | 4.0 | 7.0 | 0.00 | 0.00 | 0.00 | 71 | 1012.6 |
| 20260507151229 | 56 | 169 | 2.0 | 6.0 | 0.00 | 0.00 | 0.00 | 71 | 1012.4 |
| 20260507150229 | 56 | 152 | 3.0 | 7.0 | 0.00 | 0.00 | 0.00 | 69 | 1012.5 |
| 20260507145728 | 57 | 127 | 4.0 | 7.0 | 0.00 | 0.00 | 0.00 | 69 | 1012.5 |
| 20260507145449 | 57 | 188 | 5.0 | 9.0 | 0.00 | 0.00 | 0.00 | 70 | 1012.6 |
| 20260507144728 | 57 | 186 | 4.0 | 9.0 | 0.00 | 0.00 | 0.00 | 71 | 1012.5 |
| 20260507144228 | 57 | 195 | 4.0 | 10.0 | 0.00 | 0.00 | 0.00 | 70 | 1012.6 |
| 20260507143728 | 57 | 189 | 6.0 | 10.0 | 0.00 | 0.00 | 0.00 | 70 | 1012.7 |
| 20260507143228 | 57 | 178 | 2.0 | 7.0 | 0.00 | 0.00 | 0.00 | 71 | 1012.6 |
| 20260507142728 | 57 | 154 | 5.0 | 11.0 | 0.00 | 0.00 | 0.00 | 70 | 1012.7 |
| 20260507142228 | 57 | 144 | 4.0 | 11.0 | 0.00 | 0.00 | 0.00 | 71 | 1012.8 |
| 20260507141733 | 56 | 161 | 5.0 | 11.0 | 0.00 | 0.00 | 0.00 | 70 | 1012.8 |
| 20260507141231 | 55 | 173 | 4.0 | 10.0 | 0.00 | 0.00 | 0.00 | 72 | 1012.9 |
| 20260507140733 | 55 | 140 | 4.0 | 10.0 | 0.00 | 0.00 | 0.00 | 72 | 1012.9 |
| 20260507140227 | 55 | 137 | 5.0 | 7.0 | 0.00 | 0.00 | 0.00 | 73 | 1013.0 |
| 20260507135727 | 55 | 196 | 5.0 | 7.0 | 0.00 | 0.00 | 0.00 | 75 | 1013.1 |
| 20260507135227 | 54 | 171 | 4.0 | 7.0 | 0.00 | 0.00 | 0.00 | 76 | 1013.0 |
| 20260507134729 | 54 | 165 | 2.0 | 7.0 | 0.00 | 0.00 | 0.00 | 76 | 1013.1 |
| 20260507134227 | 53 | 164 | 5.0 | 9.0 | 0.00 | 0.00 | 0.00 | 76 | 1013.1 |
| 20260507133726 | 53 | 141 | 6.0 | 9.0 | 0.00 | 0.00 | 0.00 | 77 | 1013.1 |
| 20260507133227 | 53 | 188 | 4.0 | 10.0 | 0.00 | 0.00 | 0.00 | 76 | 1013.2 |
| 20260507132726 | 53 | 169 | 3.0 | 10.0 | 0.00 | 0.00 | 0.00 | 76 | 1013.2 |
| 20260507132226 | 53 | 171 | 5.0 | 10.0 | 0.00 | 0.00 | 0.00 | 76 | 1013.2 |
| 20260507131727 | 52 | 179 | 4.0 | 10.0 | 0.00 | 0.00 | 0.00 | 77 | 1013.2 |
| 20260507131228 | 52 | 159 | 5.0 | 10.0 | 0.00 | 0.00 | 0.00 | 77 | 1013.3 |
| 20260507130951 | 52 | 176 | 4.0 | 9.0 | 0.00 | 0.00 | 0.00 | 77 | 1013.2 |
| 20260507130226 | 52 | 199 | 5.0 | 9.0 | 0.00 | 0.00 | 0.00 | 77 | 1013.2 |
| 20260507125726 | 52 | 180 | 6.0 | 9.0 | 0.00 | 0.00 | 0.00 | 79 | 1013.4 |
| 20260507125227 | 52 | 164 | 3.0 | 9.0 | 0.00 | 0.00 | 0.00 | 79 | 1013.2 |
| 20260507124726 | 52 | 189 | 3.0 | 9.0 | 0.00 | 0.00 | 0.00 | 79 | 1013.2 |
| 20260507124226 | 51 | 162 | 5.0 | 7.0 | 0.00 | 0.00 | 0.00 | 79 | 1013.3 |
| 20260507123726 | 51 | 161 | 4.0 | 7.0 | 0.00 | 0.00 | 0.00 | 80 | 1013.3 |
| 20260507123226 | 51 | 185 | 4.0 | 5.0 | 0.00 | 0.00 | 0.00 | 81 | 1013.3 |
| 20260507122952 | 51 | 180 | 3.0 | 6.0 | 0.00 | 0.00 | 0.00 | 81 | 1013.3 |
| 20260507122225 | 51 | 179 | 2.0 | 10.0 | 0.00 | 0.00 | 0.00 | 80 | 1013.4 |
| 20260507121725 | 51 | 183 | 4.0 | 10.0 | 0.00 | 0.00 | 0.00 | 80 | 1013.4 |
| 20260507121224 | 51 | 165 | 6.0 | 10.0 | 0.00 | 0.00 | 0.00 | 80 | 1013.5 |
| 20260507120724 | 51 | 178 | 5.0 | 11.0 | 0.00 | 0.00 | 0.00 | 80 | 1013.5 |
| 20260507120227 | 51 | 155 | 4.0 | 13.0 | 0.00 | 0.00 | 0.00 | 80 | 1013.6 |
| 20260507115726 | 51 | 214 | 6.0 | 13.0 | 0.00 | 0.00 | 0.00 | 80 | 1013.5 |
| 20260507115224 | 51 | 188 | 3.0 | 9.0 | 0.00 | 0.00 | 0.00 | 80 | 1013.6 |
| 20260507114724 | 51 | 157 | 3.0 | 9.0 | 0.00 | 0.00 | 0.00 | 80 | 1013.5 |
| 20260507114224 | 51 | 147 | 6.0 | 9.0 | 0.00 | 0.00 | 0.00 | 79 | 1013.5 |
| 20260507113724 | 51 | 193 | 4.0 | 10.0 | 0.00 | 0.00 | 0.00 | 79 | 1013.5 |
| 20260507113446 | 51 | 155 | 6.0 | 10.0 | 0.00 | 0.00 | 0.00 | 79 | 1013.6 |
| 20260507112723 | 51 | 199 | 6.0 | 12.0 | 0.00 | 0.00 | 0.00 | 80 | 1013.6 |
| 20260507112222 | 51 | 199 | 5.0 | 12.0 | 0.00 | 0.00 | 0.00 | 79 | 1013.6 |
| 20260507111723 | 51 | 151 | 7.0 | 12.0 | 0.00 | 0.00 | 0.00 | 79 | 1013.6 |
| 20260507111224 | 51 | 193 | 5.0 | 12.0 | 0.00 | 0.00 | 0.00 | 79 | 1013.6 |
| 20260507110723 | 52 | 202 | 5.0 | 10.0 | 0.00 | 0.00 | 0.00 | 79 | 1013.7 |
| 20260507110236 | 52 | 161 | 5.0 | 12.0 | 0.00 | 0.00 | 0.00 | 79 | 1013.7 |
| 20260507105723 | 52 | 182 | 5.0 | 12.0 | 0.00 | 0.00 | 0.00 | 79 | 1013.7 |
| 20260507105223 | 52 | 197 | 4.0 | 11.0 | 0.00 | 0.00 | 0.00 | 80 | 1013.8 |
| 20260507104722 | 52 | 190 | 5.0 | 11.0 | 0.00 | 0.00 | 0.00 | 81 | 1013.7 |
| 20260507104444 | 51 | 171 | 4.0 | 12.0 | 0.00 | 0.00 | 0.00 | 81 | 1013.7 |
| 20260507103944 | 51 | 152 | 6.0 | 12.0 | 0.00 | 0.00 | 0.00 | 82 | 1013.7 |
| 20260507103220 | 51 | 152 | 6.0 | 11.0 | 0.00 | 0.00 | 0.00 | 82 | 1013.8 |
| 20260507102720 | 51 | 148 | 5.0 | 10.0 | 0.00 | 0.00 | 0.00 | 83 | 1013.8 |
| 20260507102220 | 50 | 164 | 6.0 | 10.0 | 0.00 | 0.00 | 0.00 | 84 | 1013.7 |
| 20260507101720 | 50 | 179 | 5.0 | 9.0 | 0.00 | 0.00 | 0.00 | 84 | 1013.7 |
| 20260507101219 | 49 | 182 | 5.0 | 9.0 | 0.00 | 0.00 | 0.00 | 85 | 1013.7 |
| 20260507100719 | 49 | 180 | 4.0 | 9.0 | 0.00 | 0.00 | 0.00 | 85 | 1013.7 |
| 20260507100219 | 49 | 183 | 4.0 | 9.0 | 0.00 | 0.00 | 0.00 | 86 | 1013.7 |
| 20260507095718 | 49 | 151 | 5.0 | 9.0 | 0.00 | 0.00 | 0.00 | 86 | 1013.8 |
| 20260507095218 | 48 | 168 | 3.0 | 7.0 | 0.00 | 0.00 | 0.00 | 86 | 1013.8 |
| 20260507094718 | 48 | 168 | 4.0 | 7.0 | 0.00 | 0.00 | 0.00 | 86 | 1013.9 |
| 20260507094219 | 48 | 175 | 3.0 | 6.0 | 0.00 | 0.00 | 0.00 | 87 | 1013.7 |
| 20260507093718 | 48 | 188 | 4.0 | 5.0 | 0.00 | 0.00 | 0.00 | 87 | 1013.8 |
| 20260507093218 | 47 | 189 | 3.0 | 6.0 | 0.00 | 0.00 | 0.00 | 88 | 1013.9 |
| 20260507092942 | 47 | 193 | 4.0 | 6.0 | 0.00 | 0.00 | 0.00 | 88 | 1013.7 |
| 20260507092442 | 47 | 158 | 3.0 | 7.0 | 0.00 | 0.00 | 0.00 | 88 | 1013.7 |
| 20260507091718 | 46 | 155 | 3.0 | 7.0 | 0.00 | 0.00 | 0.00 | 89 | 1013.7 |
| 20260507091218 | 46 | 155 | 4.0 | 7.0 | 0.00 | 0.00 | 0.00 | 89 | 1013.7 |
| 20260507090718 | 46 | 186 | 4.0 | 7.0 | 0.00 | 0.00 | 0.00 | 89 | 1013.7 |
| 20260507090218 | 46 | 159 | 5.0 | 6.0 | 0.00 | 0.00 | 0.00 | 89 | 1013.7 |
| 20260507085717 | 45 | 161 | 3.0 | 4.0 | 0.00 | 0.00 | 0.00 | 89 | 1013.7 |
| 20260507085217 | 45 | 159 | 2.0 | 5.0 | 0.00 | 0.00 | 0.00 | 89 | 1013.8 |
| 20260507084941 | 45 | 159 | 4.0 | 5.0 | 0.00 | 0.00 | 0.00 | 89 | 1013.7 |
| 20260507084217 | 45 | 161 | 3.0 | 5.0 | 0.00 | 0.00 | 0.00 | 89 | 1013.7 |
| 20260507083717 | 45 | 154 | 3.0 | 6.0 | 0.00 | 0.00 | 0.00 | 89 | 1013.8 |
| 20260507083217 | 44 | 152 | 3.0 | 6.0 | 0.00 | 0.00 | 0.00 | 89 | 1013.8 |
| 20260507082714 | 44 | 152 | 3.0 | 6.0 | 0.00 | 0.00 | 0.00 | 89 | 1013.6 |
| 20260507082214 | 44 | 152 | 3.0 | 6.0 | 0.00 | 0.00 | 0.00 | 89 | 1013.7 |
| 20260507081937 | 44 | 154 | 2.0 | 6.0 | 0.00 | 0.00 | 0.00 | 89 | 1013.7 |
| 20260507081215 | 44 | 158 | 3.0 | 6.0 | 0.00 | 0.00 | 0.00 | 89 | 1013.7 |
| 20260507080712 | 44 | 158 | 3.0 | 6.0 | 0.00 | 0.00 | 0.00 | 89 | 1013.7 |
| 20260507080212 | 44 | 159 | 5.0 | 6.0 | 0.00 | 0.00 | 0.00 | 89 | 1013.7 |
| 20260507075713 | 44 | 147 | 4.0 | 6.0 | 0.00 | 0.00 | 0.00 | 89 | 1013.7 |
| 20260507075212 | 44 | 147 | 4.0 | 7.0 | 0.00 | 0.00 | 0.00 | 89 | 1013.7 |
| 20260507074710 | 44 | 149 | 2.0 | 7.0 | 0.00 | 0.00 | 0.00 | 89 | 1013.7 |
| 20260507074208 | 44 | 155 | 4.0 | 9.0 | 0.00 | 0.00 | 0.00 | 90 | 1013.7 |
| 20260507073707 | 44 | 147 | 4.0 | 9.0 | 0.00 | 0.00 | 0.00 | 90 | 1013.7 |
| 20260507073213 | 43 | 141 | 4.0 | 6.0 | 0.00 | 0.00 | 0.00 | 90 | 1013.6 |
| 20260507072709 | 43 | 121 | 4.0 | 6.0 | 0.00 | 0.00 | 0.00 | 90 | 1013.7 |
| 20260507072207 | 43 | 161 | 4.0 | 6.0 | 0.00 | 0.00 | 0.00 | 90 | 1013.7 |
| 20260507071706 | 43 | 155 | 3.0 | 4.0 | 0.00 | 0.00 | 0.00 | 91 | 1013.7 |
| 20260507071206 | 43 | 154 | 2.0 | 6.0 | 0.00 | 0.00 | 0.00 | 91 | 1013.7 |
| 20260507070706 | 42 | 154 | 3.0 | 6.0 | 0.00 | 0.00 | 0.00 | 91 | 1013.6 |
| 20260507070205 | 42 | 159 | 3.0 | 5.0 | 0.00 | 0.00 | 0.00 | 91 | 1013.6 |
| 20260507065706 | 42 | 159 | 4.0 | 6.0 | 0.00 | 0.00 | 0.00 | 92 | 1013.5 |
| 20260507065205 | 42 | 161 | 3.0 | 6.0 | 0.00 | 0.00 | 0.00 | 92 | 1013.6 |
| 20260507064705 | 42 | 162 | 4.0 | 5.0 | 0.00 | 0.00 | 0.00 | 92 | 1013.5 |
| 20260507064205 | 41 | 159 | 4.0 | 5.0 | 0.00 | 0.00 | 0.00 | 92 | 1013.5 |
| 20260507063706 | 41 | 157 | 3.0 | 6.0 | 0.00 | 0.00 | 0.00 | 92 | 1013.5 |
| 20260507063207 | 41 | 158 | 3.0 | 6.0 | 0.00 | 0.00 | 0.00 | 93 | 1013.5 |
| 20260507062705 | 40 | 157 | 3.0 | 5.0 | 0.00 | 0.00 | 0.00 | 93 | 1013.5 |
| 20260507062206 | 40 | 158 | 3.0 | 5.0 | 0.00 | 0.00 | 0.00 | 93 | 1013.5 |
| 20260507061705 | 40 | 158 | 4.0 | 6.0 | 0.00 | 0.00 | 0.00 | 93 | 1013.4 |
| 20260507061205 | 40 | 158 | 4.0 | 6.0 | 0.00 | 0.00 | 0.00 | 93 | 1013.5 |
| 20260507060706 | 40 | 117 | 2.0 | 3.0 | 0.00 | 0.00 | 0.00 | 93 | 1013.3 |
| 20260507060205 | 39 | 116 | 2.0 | 5.0 | 0.00 | 0.00 | 0.00 | 93 | 1013.3 |
| 20260507055705 | 39 | 116 | 2.0 | 5.0 | 0.00 | 0.00 | 0.00 | 93 | 1013.3 |
| 20260507055205 | 39 | 114 | 4.0 | 5.0 | 0.00 | 0.00 | 0.00 | 93 | 1013.3 |
| 20260507054706 | 39 | 111 | 2.0 | 4.0 | 0.00 | 0.00 | 0.00 | 93 | 1013.3 |
| 20260507054205 | 39 | 111 | 2.0 | 4.0 | 0.00 | 0.00 | 0.00 | 93 | 1013.3 |
| 20260507053705 | 39 | 111 | 3.0 | 4.0 | 0.00 | 0.00 | 0.00 | 93 | 1013.3 |
| 20260507053205 | 39 | 110 | 2.0 | 4.0 | 0.00 | 0.00 | 0.00 | 93 | 1013.2 |
| 20260507052705 | 39 | 110 | 2.0 | 4.0 | 0.00 | 0.00 | 0.00 | 93 | 1013.2 |
| 20260507052209 | 39 | 109 | 2.0 | 4.0 | 0.00 | 0.00 | 0.00 | 93 | 1013.1 |
| 20260507051707 | 39 | 109 | 1.0 | 4.0 | 0.00 | 0.00 | 0.00 | 94 | 1013.1 |
| 20260507051205 | 39 | 109 | 2.0 | 3.0 | 0.00 | 0.00 | 0.00 | 94 | 1013.2 |
| 20260507050709 | 39 | 107 | 2.0 | 3.0 | 0.00 | 0.00 | 0.00 | 94 | 1013.1 |
| 20260507050205 | 39 | 107 | 2.0 | 3.0 | 0.00 | 0.00 | 0.00 | 94 | 1013.2 |
| 20260507045704 | 38 | 107 | 1.0 | 3.0 | 0.00 | 0.00 | 0.00 | 94 | 1013.2 |
| 20260507045205 | 38 | 107 | 2.0 | 3.0 | 0.00 | 0.00 | 0.00 | 94 | 1013.2 |
| 20260507044705 | 38 | 107 | 1.0 | 2.0 | 0.00 | 0.00 | 0.00 | 94 | 1013.2 |
| 20260507044205 | 38 | 107 | 1.0 | 2.0 | 0.00 | 0.00 | 0.00 | 94 | 1013.2 |
| 20260507043933 | 38 | 107 | 1.0 | 2.0 | 0.00 | 0.00 | 0.00 | 94 | 1013.1 |
| 20260507043205 | 38 | 107 | 0.0 | 2.0 | 0.00 | 0.00 | 0.00 | 94 | 1013.1 |
| 20260507042926 | 38 | 107 | 0.0 | 3.0 | 0.00 | 0.00 | 0.00 | 94 | 1013.2 |
| 20260507042206 | 38 | 107 | 1.0 | 3.0 | 0.00 | 0.00 | 0.00 | 94 | 1013.2 |
| 20260507041705 | 37 | 107 | 2.0 | 2.0 | 0.00 | 0.00 | 0.00 | 94 | 1013.1 |
| 20260507041205 | 37 | 107 | 1.0 | 2.0 | 0.00 | 0.00 | 0.00 | 94 | 1013.1 |
| 20260507040705 | 37 | 107 | 0.0 | 2.0 | 0.00 | 0.00 | 0.00 | 93 | 1013.2 |
| 20260507040427 | 37 | 107 | 0.0 | 2.0 | 0.00 | 0.00 | 0.00 | 93 | 1013.2 |
| 20260507035704 | 37 | 107 | 1.0 | 2.0 | 0.00 | 0.00 | 0.00 | 93 | 1013.2 |
| 20260507035205 | 37 | 107 | 0.0 | 2.0 | 0.00 | 0.00 | 0.00 | 93 | 1013.1 |
| 20260507034706 | 37 | 107 | 1.0 | 2.0 | 0.00 | 0.00 | 0.00 | 93 | 1013.3 |
| 20260507034206 | 36 | 107 | 0.0 | 2.0 | 0.00 | 0.00 | 0.00 | 93 | 1013.1 |
| 20260507033705 | 36 | 107 | 1.0 | 2.0 | 0.00 | 0.00 | 0.00 | 93 | 1013.2 |